{"data":{"norad_id":37154,"epoch":"2026-05-25T01:30:10.952064Z","epoch_age_seconds":69069,"freshness":"FRESH","line1":"1 37154U 10043C   26145.06262676  .00000021  00000+0  81765-4 0  9994","line2":"2 37154  82.4607  76.7167 0015089   3.5813   7.8220 12.43746693713001","mean_motion":12.43746693,"eccentricity":0.0015089,"inclination_deg":82.4607,"raan_deg":76.7167,"arg_perigee_deg":3.5813,"mean_anomaly_deg":7.822,"bstar":8.1765e-5,"rev_number":71300,"period_min":115.77920231704,"perigee_km":1478.887007352,"apogee_km":1502.6337658853,"semimajor_km":7868.8973866186,"source":"CELESTRAK","updated_at":"2026-05-25T13:37:55.223068Z"}}